Location: Paris
(48.6709°N, 2.3750°E)
Time: 12:13:30
(UTC+02:00)

NOAA 18 - Pass Details

Date: 03 July 2022
Orbit: 839 x 860 km, 98.9° (Epoch: 10 August)

Event Time Altitude Azimuth Distance (km) Brightness Sun altitude
Exits shadow 22:32:18 - 137° (SE) 2,798 7.2 -5.4°
Reaches altitude 10° 22:33:09 10° 134° (SE) 2,482 6.9 -5.5°
Maximum altitude 22:38:18 42° 65° (ENE) 1,205 5.9 -6.1°
Drops below altitude 10° 22:43:30 10° 357° (N) 2,507 8.5 -6.7°
Sets 22:45:59 0° 350° (N) 3,449 9.4 -6.9°
